Weather History for Viroqua, WI

Change the Weather History Date:

Saturday, June 29, 2013

  Actual Average (KLSE) Record (KLSE)
Temperature  
Mean Temperature 64 °F 73 °F  
Max Temperature 68 °F 84 °F 101 °F (1931)
Min Temperature 60 °F 62 °F 45 °F (1950)
Degree Days  
Heating Degree Days 1 0  
Month to date heating degree days 38  
Since 1 June heating degree days 38  
Since 1 July heating degree days 7195  
Cooling Degree Days 0 8  
Month to date cooling degree days 158  
Year to date cooling degree days 206  
Since 1 June cooling degree days 158  
Growing Degree Days 14 (Base 50)    
Moisture  
Dew Point 61 °F    
Average Humidity 91    
Maximum Humidity 100    
Minimum Humidity 75    
Precipitation  
Precipitation 0.08 in 0.15 in 1.33 in (1969)
Month to date precipitation 4.19  
Year to date precipitation 15.26  
Snow  
Snow 0.00 in 0.00 in 0.00 in (2002)
Month to date snowfall 0.0  
Since 1 June snowfall 0.0  
Since 1 July snowfall 43.3  
Snow Depth -    
Sea Level Pressure  
Sea Level Pressure 29.80 in    
Wind  
Wind Speed 8 mph (North)    
Max Wind Speed 17 mph    
Max Gust Speed 22 mph    
Visibility 10 miles    
Events      
T = Trace of Precipitation, MM = Missing Value Source: NWS Daily Summary

Daily Weather History Graph

Daily Weather History Graph

Search for Another Location

Airport:

Trip Planner

Search our weather history database for the weather conditions in past years. The results will help you decide how hot, cold, wet, or windy it might be!

Date:

Astronomy

Jun. 29, 2013 Rise Set
Actual Time 5:25 AM CDT 8:48 PM CDT
Civil Twilight 4:49 AM CDT 9:24 PM CDT
Nautical Twilight 4:02 AM CDT 10:11 PM CDT
Astronomical Twilight 3:04 AM CDT 11:09 PM CDT
Moon 12:04 AM CDT (6/29) 12:51 PM CDT (6/29)
Length of Visible Light 16h 35m
Length of Day
15h 23m
Waning Gibbous, 55% of the Moon is Illuminated
Jun 29
Waning Gibbous
Jun 29
Last Quarter
Jul 8
New
Jul 15
First Quarter
Jul 22
Full

Hourly Weather History & Observations

Time (CDT) Temp. Dew Point Humidity Pressure Visibility Wind Dir Wind Speed Gust Speed Precip Events Conditions
12:15 AM 63.3 °F 63.3 °F 100% 29.71 in 10.0 mi NNW 6.9 mph - N/A   Overcast
12:35 AM 63.1 °F 63.1 °F 100% 29.71 in 10.0 mi NNW 4.6 mph - N/A   Overcast
12:55 AM 63.1 °F 63.1 °F 100% 29.70 in 10.0 mi NNW 4.6 mph - N/A   Overcast
1:15 AM 63.0 °F 63.0 °F 100% 29.70 in 10.0 mi NNW 6.9 mph - N/A   Mostly Cloudy
1:35 AM 63.3 °F 63.3 °F 100% 29.69 in 10.0 mi North 9.2 mph - N/A   Overcast
4:35 AM 62.8 °F 62.8 °F 100% 29.71 in 10.0 mi North 6.9 mph - N/A   Overcast
4:55 AM 62.6 °F 62.6 °F 100% 29.71 in 10.0 mi North 6.9 mph - N/A   Overcast
5:15 AM 62.4 °F 62.4 °F 100% 29.71 in 10.0 mi North 5.8 mph - N/A   Overcast
5:55 AM 62.2 °F 62.2 °F 100% 29.72 in 10.0 mi North 8.1 mph - N/A   Overcast
6:15 AM 62.2 °F 62.2 °F 100% 29.73 in 10.0 mi North 6.9 mph - N/A   Overcast
6:35 AM 62.2 °F 62.1 °F 99% 29.74 in 10.0 mi North 9.2 mph - N/A   Overcast
6:55 AM 61.7 °F 61.7 °F 100% 29.74 in 10.0 mi NNE 8.1 mph - N/A   Overcast
7:15 AM 62.2 °F 62.1 °F 99% 29.74 in 10.0 mi North 6.9 mph - N/A   Overcast
7:35 AM 62.4 °F 61.9 °F 98% 29.74 in 10.0 mi North 6.9 mph - N/A   Overcast
7:55 AM 62.2 °F 61.9 °F 99% 29.74 in 10.0 mi North 9.2 mph - N/A   Overcast
8:15 AM 62.2 °F 61.7 °F 98% 29.75 in 10.0 mi North 6.9 mph - N/A   Overcast
8:35 AM 62.6 °F 61.9 °F 97% 29.75 in 10.0 mi North 8.1 mph - N/A   Overcast
8:55 AM 63.9 °F 62.4 °F 95% 29.75 in 10.0 mi North 8.1 mph - N/A   Overcast
9:15 AM 64.4 °F 62.1 °F 92% 29.76 in 10.0 mi North 8.1 mph - N/A   Overcast
9:35 AM 64.4 °F 61.9 °F 92% 29.75 in 10.0 mi North 9.2 mph - N/A   Overcast
9:55 AM 64.8 °F 62.2 °F 92% 29.76 in 10.0 mi North 9.2 mph - N/A   Overcast
10:15 AM 65.1 °F 61.7 °F 89% 29.76 in 10.0 mi North 9.2 mph - N/A   Overcast
10:35 AM 65.7 °F 61.5 °F 86% 29.76 in 10.0 mi North 8.1 mph - N/A   Overcast
10:55 AM 64.4 °F 62.1 °F 92% 29.76 in 10.0 mi NNW 11.5 mph - N/A   Overcast
11:15 AM 63.7 °F 62.8 °F 97% 29.77 in 3.0 mi North 9.2 mph - 0.02 in   Overcast
11:35 AM 64.9 °F 63.3 °F 94% 29.78 in 10.0 mi North 8.1 mph - 0.04 in   Overcast
11:55 AM 68.4 °F 63.9 °F 85% 29.77 in 10.0 mi North 9.2 mph - 0.04 in   Overcast
12:15 PM 65.3 °F 63.9 °F 95% 29.78 in 7.0 mi North 9.2 mph 16.1 mph N/A   Overcast
12:35 PM 65.7 °F 63.3 °F 92% 29.78 in 10.0 mi North 12.7 mph - 0.01 in   Mostly Cloudy
12:55 PM 66.0 °F 63.9 °F 93% 29.78 in 10.0 mi NNE 11.5 mph - 0.01 in   Mostly Cloudy
1:15 PM 63.7 °F 63.0 °F 97% 29.79 in 10.0 mi NNE 13.8 mph - N/A   Overcast
1:35 PM 63.0 °F 62.2 °F 97% 29.80 in 5.0 mi North 13.8 mph 18.4 mph 0.02 in   Overcast
1:55 PM 63.7 °F 62.8 °F 97% 29.80 in 10.0 mi North 17.3 mph 21.9 mph 0.03 in   Overcast
2:15 PM 63.1 °F 62.4 °F 97% 29.81 in 10.0 mi North 16.1 mph - N/A   Overcast
2:35 PM 62.8 °F 62.1 °F 97% 29.81 in 10.0 mi North 15.0 mph 18.4 mph N/A   Overcast
2:55 PM 63.3 °F 62.2 °F 96% 29.82 in 10.0 mi North 15.0 mph 19.6 mph N/A   Overcast
3:15 PM 64.4 °F 62.4 °F 93% 29.82 in 10.0 mi NNE 16.1 mph 19.6 mph N/A   Overcast
3:35 PM 66.0 °F 59.5 °F 80% 29.82 in 10.0 mi NNE 12.7 mph - N/A   Scattered Clouds
3:55 PM 65.1 °F 61.2 °F 87% 29.83 in 10.0 mi North 15.0 mph 20.7 mph N/A   Mostly Cloudy
4:15 PM 65.8 °F 61.7 °F 86% 29.83 in 10.0 mi North 9.2 mph - N/A   Overcast
4:55 PM 68.2 °F 59.9 °F 75% 29.83 in 10.0 mi North 11.5 mph - N/A   Overcast
5:35 PM 67.1 °F 62.8 °F 86% 29.84 in 10.0 mi North 8.1 mph - N/A   Overcast
5:55 PM 68.0 °F 61.7 °F 80% 29.84 in 10.0 mi NNW 9.2 mph 16.1 mph N/A   Overcast
6:15 PM 66.9 °F 62.4 °F 85% 29.84 in 10.0 mi North 11.5 mph - N/A   Overcast
6:35 PM 66.2 °F 61.9 °F 86% 29.85 in 10.0 mi North 9.2 mph - N/A   Overcast
6:55 PM 65.7 °F 62.2 °F 89% 29.85 in 10.0 mi North 6.9 mph - N/A   Overcast
7:15 PM 65.5 °F 62.1 °F 89% 29.86 in 10.0 mi North 10.4 mph - N/A   Overcast
7:35 PM 64.8 °F 61.2 °F 88% 29.86 in 10.0 mi North 11.5 mph - N/A   Overcast
7:55 PM 64.6 °F 59.0 °F 82% 29.86 in 10.0 mi North 5.8 mph - N/A   Overcast
8:15 PM 64.6 °F 59.2 °F 83% 29.87 in 10.0 mi North 6.9 mph - N/A   Overcast
8:35 PM 64.4 °F 59.4 °F 84% 29.87 in 10.0 mi North 5.8 mph - N/A   Overcast
8:55 PM 64.2 °F 59.9 °F 86% 29.88 in 10.0 mi North 5.8 mph - N/A   Overcast
9:15 PM 64.2 °F 61.2 °F 90% 29.88 in 10.0 mi North 5.8 mph - N/A   Overcast
9:35 PM 64.4 °F 61.0 °F 89% 29.89 in 10.0 mi North 8.1 mph - N/A   Overcast
9:55 PM 63.5 °F 59.4 °F 86% 29.89 in 10.0 mi North 6.9 mph - N/A   Scattered Clouds
10:15 PM 63.0 °F 57.4 °F 82% 29.90 in 10.0 mi North 8.1 mph - N/A   Clear
10:35 PM 62.6 °F 55.2 °F 77% 29.90 in 10.0 mi North 9.2 mph - N/A   Clear
10:55 PM 61.9 °F 55.0 °F 78% 29.90 in 10.0 mi North 9.2 mph - N/A   Scattered Clouds
11:15 PM 61.3 °F 55.2 °F 80% 29.90 in 10.0 mi North 9.2 mph - N/A   Scattered Clouds
11:35 PM 60.8 °F 55.4 °F 82% 29.91 in 10.0 mi North 9.2 mph - N/A   Scattered Clouds
11:55 PM 60.8 °F 55.6 °F 83% 29.91 in 10.0 mi North 8.1 mph - N/A   Mostly Cloudy